Weather in Buffalo

United States     42°53′09″N   78°52′41″W
temp.,
°C
wind,
m/s
gust,
m/s
humid.,
%
clouds,
%
prec.,
mm/h
press.,
hPa
HPBL,
m
17 may, mon
mon1723:00+12s24730 0.0 102388
02:00+10ssw24801 0.0 102483
05:00+9s22850 0.0 102428
08:00+12s22690 0.0 1025190
11:00+18sw21484 0.0 1025893
14:00+21sw324022 0.0 10241626
17:00+20sw334096 0.0 10241072
20:00+16sw235933 0.0 102499
18 may, tue
tue1823:00+12ssw24620 0.0 102575
02:00+12ssw24673 0.0 102570
05:00+11ssw22775 0.0 102631
08:00+14sw22666 0.0 1027151
11:00+20sw32489 0.0 1027715
14:00+23sw32385 0.0 10251318
17:00+23wsw22395 0.0 10251271
20:00+18sw2355100 0.0 102561
19 may, wed
wed1923:00+15ssw225155 0.0 102639
02:00+14ssw126092 0.0 102620
05:00+13s116961 0.0 102611
08:00+16se126197 0.0 102798
11:00+23ssw2242100 0.0 1027766
14:00+26sw3339100 0.0 10261538
17:00+25wsw3341100 0.0 10251233
20:00+21sw1161100 0.0 102517
20 may, thu
thu2023:00+18sse1164100 0.0 102625
02:00+17s1268100 0.0 102620
05:00+17s2376100 0.0 102659
08:00+18ssw2475100 0.0 1028141
11:00+21w2473100 0.1 1028496
14:00+18sse2490100 0.4 1027144
17:00+23s2463100 0.0 1026500
20:00+21s2277100 0.0 102529
21 may, fri
fri2123:00+18ssw3685100 0.0 1026113
02:00+17ssw2691100 0.2 1026134
05:00+16sw2693100 0.3 1026136
08:00+17sw41089100 0.7 1027272
11:00+22sw4770100 0.0 1026381
14:00+23sw5872100 0.3 1025517
17:00+22sw5973100 0.4 1024477
20:00+18sw4887100 1.6 1024179